STARLINK-1119 (44928 NORAD) Tracking and Keplerian Element Data

This shows tracking and keplerian element data for the satellite.

Feedback or suggestion? Click here.




ElementValue
Catalog44928
NameSTARLINK-1119
Epoch Orbit2775
Epoch Day189.91668981
Epoch Year2020
RAAN282.6773
Inclination52.9982
Eccentricity9.49E-05
Argument of Perigee121.4342
Mean Anonmoly289.3308
Mean Motion15.05599103
Decay Rate-0.00036609
L11 44928U 20001Q 20189.91668981 -.00036609 00000-0 -25051-2 0 9999
L22 44928 52.9982 282.6773 0000949 121.4342 289.3308 15.05599103 27750

Live tracking and technical data element details for STARLINK-1119 (NORAD 44928). STARLINK-1119 can be tracked NOW for your location showing map with azimuth and elevation plus other details from your city location.

Track the satellite on the map from your city or location and see movement details for azimuth, elevation, latitude, longitude, range, height, and movement on the map or in text.







IsCatalogInMostPopularTable: catalog: 44928, numindb: 37
Update: records affected: 1



GetName: 44928 STARLINK-1119

Hit Count: updated at: Thu, 09 Jul 2020 01:25:51 GMT